Glens Falls, NY

5:48 PM EST on December 07, 2019 (GMT -0500)
Bennett Memorial

Weather History for KGFL - October, 2019

Change the Weather History Date:

Tuesday, October 1, 2019

  Actual Average Record
Temperature  
Mean Temperature 62 °F 52 °F  
Max Temperature 71 °F 64 °F 87 °F (1927)
Min Temperature 55 °F 40 °F 29 °F (1992)
Degree Days  
Heating Degree Days 2 13  
Month to date heating degree days 13  
Since 1 July heating degree days 298  
Cooling Degree Days 0 0  
Month to date cooling degree days 0  
Year to date cooling degree days 351  
Growing Degree Days 12 (Base 50)    
Moisture  
Dew Point 60 °F    
Average Humidity 91    
Maximum Humidity 97    
Minimum Humidity 81    
Precipitation  
Precipitation 0.09 in 0.12 in 2.41 in (2010)
Month to date precipitation 0.12  
Year to date precipitation 29.31  
Sea Level Pressure  
Sea Level Pressure 29.96 in    
Wind  
Wind Speed 7 mph (SSW)    
Max Wind Speed 10 mph    
Max Gust Speed -    
Visibility 9 miles    
Events Rain    
T = Trace of Precipitation, MM = Missing Value Source: NWS Daily Summary

Daily Weather History Graph

Daily Weather History Graph

Search for Another Location

Airport or City:

Astronomy

Oct. 01, 2019 Rise Set
Actual Time 6:51 AM EDT 6:35 PM EDT
Civil Twilight 6:23 AM EDT 7:04 PM EDT
Nautical Twilight 5:50 AM EDT 7:37 PM EDT
Astronomical Twilight 5:16 AM EDT 8:10 PM EDT
Moon 10:09 AM EDT (10/1) 8:41 PM EDT (10/1)
Length of Visible Light 12h 41m
Length of Day
11h 44m
Waxing Crescent, 12% of the Moon is Illuminated
Oct 1
Waxing Crescent
Oct 5
First Quarter
Oct 13
Full
Oct 21
Last Quarter
Oct 27
New

Hourly Weather History & Observations

Time (EDT) Temp. Dew Point Humidity Pressure Visibility Wind Dir Wind Speed Gust Speed Precip Events Conditions
12:53 AM 55.9 °F 55.0 °F 97% 30.13 in 6.0 mi SSW 9.2 mph - N/A   Overcast
1:53 AM 57.0 °F 55.0 °F 93% 30.10 in 8.0 mi South 6.9 mph - 0.00 in   Overcast
2:53 AM 57.0 °F 55.0 °F 93% 30.08 in 7.0 mi SSW 6.9 mph - 0.00 in   Overcast
3:53 AM 57.9 °F 55.9 °F 93% 30.07 in 7.0 mi SSW 8.1 mph - N/A   Overcast
4:53 AM 57.9 °F 55.9 °F 93% 30.06 in 10.0 mi South 8.1 mph - 0.00 in   Overcast
5:53 AM 57.9 °F 55.9 °F 93% 30.05 in 9.0 mi South 5.8 mph - 0.00 in Rain Light Rain
6:53 AM 57.9 °F 55.9 °F 93% 30.05 in 10.0 mi SSW 5.8 mph - 0.01 in   Overcast
7:53 AM 57.9 °F 57.0 °F 97% 30.06 in 10.0 mi South 5.8 mph - 0.00 in Rain Light Rain
8:16 AM 57.9 °F 57.0 °F 97% 30.04 in 1.8 mi South 6.9 mph - 0.07 in Rain Heavy Rain
8:23 AM 57.9 °F 57.0 °F 97% 30.04 in 3.0 mi South 8.1 mph - 0.07 in Rain Light Rain
8:53 AM 57.9 °F 57.0 °F 97% 30.04 in 10.0 mi South 8.1 mph - 0.07 in   Overcast
9:53 AM 59.0 °F 57.9 °F 96% 30.03 in 10.0 mi SSW 8.1 mph - 0.01 in   Overcast
10:53 AM 60.1 °F 57.9 °F 93% 30.01 in 10.0 mi South 8.1 mph - 0.00 in   Overcast
11:53 AM 61.0 °F 59.0 °F 93% 29.99 in 10.0 mi South 8.1 mph - N/A   Overcast
12:53 PM 62.1 °F 59.0 °F 90% 29.96 in 10.0 mi South 9.2 mph - N/A   Overcast
1:53 PM 64.9 °F 61.0 °F 87% 29.93 in 10.0 mi SSW 9.2 mph - N/A   Overcast
2:53 PM 68.0 °F 63.0 °F 84% 29.91 in 10.0 mi South 10.4 mph - N/A   Overcast
3:53 PM 68.0 °F 63.0 °F 84% 29.88 in 10.0 mi SSW 10.4 mph - N/A   Mostly Cloudy
4:06 PM 70.0 °F 64.0 °F 81% 29.88 in 10.0 mi SW 9.2 mph - N/A   Scattered Clouds
4:53 PM 70.0 °F 64.0 °F 81% 29.87 in 10.0 mi SW 5.8 mph - N/A   Clear
5:53 PM 70.0 °F 64.9 °F 84% 29.86 in 10.0 mi SSW 3.5 mph - N/A   Clear
6:53 PM 66.9 °F 64.9 °F 93% 29.84 in 10.0 mi SSW 4.6 mph - N/A   Clear
7:53 PM 66.0 °F 64.0 °F 93% 29.83 in 10.0 mi North 3.5 mph - N/A   Partly Cloudy
8:53 PM 64.9 °F 64.0 °F 97% 29.82 in 9.0 mi Calm Calm - N/A   Partly Cloudy
9:53 PM 70.0 °F 66.0 °F 87% 29.80 in 10.0 mi South 8.1 mph - 0.00 in   Partly Cloudy
10:53 PM 70.0 °F 66.0 °F 87% 29.78 in 10.0 mi South 6.9 mph - 0.00 in Rain Light Rain
11:53 PM 69.1 °F 66.0 °F 90% 29.77 in 10.0 mi SSW 3.5 mph - 0.00 in   Scattered Clouds